Flag for United Kingdom Weather past 2 weeks in Stafford, England, United Kingdom

Now
50 °F

Passing clouds.


Feels Like: 47 °F
Forecast: 42 / 67 °F
Wind: 8 mph from West

Location: Shawbury

Current Time: Jul 30, 2015 at 6:04:28 AM

Latest Report: Jul 30, 2015 at 4:50 AM


Visibility: N/A

Pressure: 30.01 "Hg

Humidity: 88%

Dew point: 46 °F

Location of StaffordLocation

Historic Weather in Stafford — Graph

°F

Stafford temperature yesterday

Maximum temperature yesterday: 59 °F (at 1:50 PM)
Minimum temperature yesterday: 46 °F (at 2:50 AM)
Average temperature yesterday: 54 °F

Past Weeks' High & Low Weather Summary

 TemperatureHumidityPressure
High72 °F (Jul 16, 3:50 PM)100% (Jul 16, 3:50 AM)30.15 "Hg (Jul 16, 3:50 AM)
Low41 °F (Jul 16, 4:50 AM)43% (Jul 25, 3:50 PM)29.33 "Hg (Jul 26, 9:50 PM)
Average58 °F77%29.83 "Hg
* Reported Jul 15 4:50 AM — Jul 30 4:50 AM, Stafford, Weather by CustomWeather, © 2015

Note: Actual official high and low records may vary slightly from our data, if they occured in-between our weather recording intervals... More about our weather records

Advertising

Stafford weather history for previous 24 hours

 ConditionsComfort  
Time TempWeatherWind HumidityBarometerVisibility
4:50 AM
Thu, Jul 30
50 °FPassing clouds.8 mph88%30.01 "HgN/A
3:50 AM50 °FPassing clouds.9 mph88%30.01 "HgN/A
2:50 AM50 °FOvercast.9 mph88%30.01 "HgN/A
1:50 AM52 °FPassing clouds.12 mph82%30.01 "HgN/A
12:50 AM50 °FClear.6 mph88%30.01 "Hg10 mi
11:50 PM
Wed, Jul 29
52 °FClear.9 mph82%30.01 "Hg10 mi
10:50 PM54 °FPassing clouds.10 mph77%29.98 "HgN/A
9:50 PM52 °FScattered clouds.9 mph82%29.98 "HgN/A
8:50 PM55 °FScattered clouds.8 mph72%29.98 "HgN/A
7:50 PM57 °FScattered clouds.8 mph67%29.95 "HgN/A
6:50 PM55 °FScattered showers. Scattered clouds.8 mph82%29.92 "HgN/A
5:50 PM59 °FScattered clouds.10 mph63%29.92 "HgN/A
4:50 PM59 °FScattered clouds.14 mph68%29.92 "HgN/A
3:50 PM59 °FScattered clouds.10 mph63%29.89 "HgN/A
2:50 PM57 °FPartly sunny.9 mph72%29.89 "HgN/A
1:50 PM59 °FSprinkles. Broken clouds.10 mph68%29.89 "HgN/A
12:50 PM57 °FPartly sunny.14 mph77%29.86 "HgN/A
11:50 AM57 °FSprinkles. Partly sunny.13 mph77%29.86 "HgN/A
10:50 AM57 °FBroken clouds.10 mph72%29.83 "HgN/A
9:50 AM57 °FBroken clouds.8 mph72%29.83 "HgN/A
8:50 AM55 °FPartly sunny.8 mph82%29.80 "HgN/A
7:50 AM54 °FScattered clouds.8 mph82%29.80 "HgN/A
6:50 AM50 °FPassing clouds.3 mph94%29.77 "HgN/A
Weather by CustomWeather, © 2015

See weather overviewHow to use our weather pages